Location: Vinland
(47.7731°N, 122.6974°W)
Time: 05:19:36
(UTC+00:00)

Vanguard 2 - Pass Details

Date: 24 April 2024
Orbit: 552 x 2914 km, 32.9° (Epoch: 25 May)

Event Time Altitude Azimuth Distance (km) Brightness Sun altitude
Exits shadow 10:12:13 31° 218° (SW) 3,822 10.4 -23.2°
Maximum altitude 10:19:30 46° 171° (S) 3,469 10.4 -22.5°
Drops below altitude 10° 10:35:41 10° 106° (ESE) 5,660 12.2 -20.9°
Sets 10:40:08 0° 101° (ESE) 6,547 12.7 -20.4°
